timestamp,surface_pressure_avg,surface_temp_avg,battery_voltage,lat,long
2022-02-20 00:09:01+00:00,331.5463,1.8,12.33,47.84626,-54.09684
2022-02-20 00:19:00+00:00,335.3546,1.8,12.33,47.84626,-54.09684
2022-02-20 00:29:00+00:00,348.4496,1.8,12.33,47.84626,-54.09684
2022-02-20 00:39:00+00:00,348.9663,1.8,12.33,47.84626,-54.09684
2022-02-20 00:49:00+00:00,347.7279,1.8,12.33,47.84626,-54.09684
2022-02-20 00:59:00+00:00,355.2563,1.8,12.33,47.84626,-54.09684
2022-02-20 01:09:00+00:00,361.24300000000005,1.8,12.33,47.84626,-54.09684
2022-02-20 01:19:00+00:00,359.6747,1.8,12.33,47.84626,-54.09684
2022-02-20 01:29:00+00:00,357.5279,1.8,12.33,47.84626,-54.09684
2022-02-20 01:39:00+00:00,359.7412,1.8,12.33,47.84626,-54.09684
2022-02-20 01:49:00+00:00,358.1563,1.8,12.33,47.84626,-54.09684
2022-02-20 01:59:00+00:00,348.55800000000005,1.8,12.33,47.84626,-54.09684
2022-02-20 02:09:00+00:00,342.6330000000001,1.8,12.33,47.84626,-54.09684
2022-02-20 02:19:00+00:00,347.1196,1.8,12.33,47.84626,-54.09684
2022-02-20 02:29:00+00:00,353.1746,1.8,12.33,47.84626,-54.09684
2022-02-20 02:39:00+00:00,348.4597,1.8,12.33,47.84626,-54.09684
2022-02-20 02:49:00+00:00,347.153,1.8,12.33,47.84626,-54.09684
2022-02-20 02:59:00+00:00,350.3146,1.8,12.33,47.84626,-54.09684
2022-02-20 03:09:00+00:00,349.1296,1.8,12.33,47.84626,-54.09684
2022-02-20 03:19:01+00:00,339.5862,1.8,12.25,47.84626,-54.09684
2022-02-20 03:29:01+00:00,338.8513,1.8,12.25,47.84626,-54.09684
2022-02-20 03:39:01+00:00,342.7645,1.8,12.25,47.84626,-54.09684
2022-02-20 03:49:01+00:00,330.9863,1.8,12.25,47.84626,-54.09684
2022-02-20 03:59:01+00:00,325.9647,1.79,12.25,47.84626,-54.09684
2022-02-20 04:09:01+00:00,327.3513,1.79,12.25,47.84626,-54.09684
2022-02-20 04:19:00+00:00,321.0963,1.79,12.25,47.84626,-54.09684
2022-02-20 04:29:00+00:00,306.0814,1.76,12.25,47.84626,-54.09684
2022-02-20 04:39:00+00:00,302.6447,1.77,12.25,47.84626,-54.09684
2022-02-20 04:49:00+00:00,295.9697,1.77,12.25,47.84626,-54.09684
2022-02-20 04:59:00+00:00,284.4331,1.78,12.25,47.84626,-54.09684
2022-02-20 05:09:00+00:00,267.0614,1.74,12.25,47.84626,-54.09684
2022-02-20 05:19:00+00:00,254.3431,1.77,12.25,47.84626,-54.09684
2022-02-20 05:29:00+00:00,247.1847,1.78,12.25,47.84626,-54.09684
2022-02-20 05:39:00+00:00,234.0781,1.77,12.25,47.84626,-54.09684
2022-02-20 05:49:00+00:00,216.9198,1.77,12.25,47.84626,-54.09684
2022-02-20 05:59:00+00:00,206.9931,1.77,12.25,47.84626,-54.09684
2022-02-20 06:09:00+00:00,206.7014,1.79,12.25,47.84626,-54.09684
2022-02-20 06:19:01+00:00,204.4632,1.79,12.25,47.84626,-54.09684
2022-02-20 06:29:01+00:00,197.4614,1.7,12.25,47.84626,-54.09684
2022-02-20 06:39:01+00:00,190.6781,1.72,12.25,47.84626,-54.09684
2022-02-20 06:49:01+00:00,186.8065,1.78,12.25,47.84626,-54.09684
2022-02-20 06:59:01+00:00,182.0631,1.5,12.25,47.84626,-54.09684
2022-02-20 07:09:01+00:00,181.0782,1.57,12.25,47.84626,-54.09684
2022-02-20 07:19:00+00:00,184.6215,1.3,12.25,47.84626,-54.09684
2022-02-20 07:29:00+00:00,182.6998,1.1,12.25,47.84626,-54.09684
2022-02-20 07:39:00+00:00,182.3264,1.33,12.25,47.84626,-54.09684
2022-02-20 07:49:00+00:00,184.2082,1.3,12.25,47.84626,-54.09684
2022-02-20 07:59:00+00:00,183.0148,1.45,12.25,47.84626,-54.09684
2022-02-20 08:09:00+00:00,183.2348,1.5,12.25,47.84626,-54.09684
2022-02-20 08:19:00+00:00,185.1314,1.49,12.25,47.84626,-54.09684
2022-02-20 08:29:00+00:00,185.1948,1.59,12.25,47.84626,-54.09684
2022-02-20 08:39:00+00:00,189.9464,1.56,12.25,47.84626,-54.09684
2022-02-20 08:49:00+00:00,195.6848,1.49,12.25,47.84626,-54.09684
2022-02-20 08:59:00+00:00,201.4164,1.54,12.25,47.84626,-54.09684
2022-02-20 09:09:00+00:00,205.7748,1.53,12.25,47.84626,-54.09684
2022-02-20 09:19:00+00:00,207.9414,1.5,12.25,47.84626,-54.09684
2022-02-20 09:29:00+00:00,210.1798,1.52,12.25,47.84626,-54.09684
2022-02-20 09:39:00+00:00,211.6998,1.54,12.25,47.84626,-54.09684
2022-02-20 09:49:00+00:00,218.7848,1.56,12.25,47.84626,-54.09684
2022-02-20 09:59:00+00:00,225.1464,1.59,12.25,47.84626,-54.09684
2022-02-20 10:09:00+00:00,222.2881,1.6,12.25,47.84626,-54.09684
2022-02-20 10:19:01+00:00,221.1181,1.5,12.25,47.84626,-54.09684
2022-02-20 10:29:01+00:00,233.7548,1.5,12.25,47.84626,-54.09684
2022-02-20 10:39:01+00:00,246.0031,1.5,12.25,47.84626,-54.09684
2022-02-20 10:49:01+00:00,250.4898,1.5,12.25,47.84626,-54.09684
2022-02-20 10:59:01+00:00,255.2047,1.5,12.25,47.84626,-54.09684
2022-02-20 11:09:01+00:00,263.8115,1.46,12.25,47.84626,-54.09684
2022-02-20 11:19:00+00:00,268.1031,1.4,12.25,47.84626,-54.09684
2022-02-20 11:29:00+00:00,267.1114,1.4,12.25,47.84626,-54.09684
2022-02-20 11:39:00+00:00,280.0314,1.44,12.25,47.84626,-54.09684
2022-02-20 11:49:00+00:00,289.2798,1.5,12.25,47.84626,-54.09684
2022-02-20 11:59:00+00:00,291.588,1.5,12.25,47.84626,-54.09684
2022-02-20 12:09:00+00:00,295.8214,1.5,12.25,47.84626,-54.09684
2022-02-20 12:19:00+00:00,309.603,1.56,12.33,47.84626,-54.09684
2022-02-20 12:29:00+00:00,312.9813,1.6,12.33,47.84626,-54.09684
2022-02-20 12:39:00+00:00,313.5597,1.5,12.33,47.84626,-54.09684
2022-02-20 12:49:00+00:00,328.2113,1.52,12.33,47.84626,-54.09684
2022-02-20 12:59:00+00:00,328.4347,1.6,12.33,47.84626,-54.09684
2022-02-20 13:09:00+00:00,321.7679,1.6,12.33,47.84626,-54.09684
2022-02-20 13:19:00+00:00,327.0197,1.68,12.41,47.84626,-54.09684
2022-02-20 13:29:00+00:00,347.093,1.7,12.41,47.84626,-54.09684
2022-02-20 13:39:00+00:00,351.278,1.7,12.41,47.84626,-54.09684
2022-02-20 13:49:00+00:00,355.968,1.63,12.41,47.84626,-54.09684
2022-02-20 13:59:00+00:00,370.8879,1.69,12.41,47.84626,-54.09684
2022-02-20 14:09:00+00:00,370.3812,1.7,12.41,47.84626,-54.09684
2022-02-20 14:19:01+00:00,355.1329,1.65,12.33,47.84626,-54.09684
2022-02-20 14:29:01+00:00,361.218,1.61,12.33,47.84626,-54.09684
2022-02-20 14:39:01+00:00,373.8212,1.63,12.33,47.84626,-54.09684
2022-02-20 14:49:01+00:00,369.6696,1.6,12.33,47.84626,-54.09684
2022-02-20 14:59:01+00:00,356.4546,1.6,12.33,47.84626,-54.09684
2022-02-20 15:09:01+00:00,354.3229,1.6,12.33,47.84626,-54.09684
2022-02-20 15:19:00+00:00,356.99800000000016,1.6,12.25,47.84626,-54.09684
2022-02-20 15:29:00+00:00,352.9146,1.6,12.25,47.84626,-54.09684
2022-02-20 15:39:00+00:00,348.9913,1.6,12.25,47.84626,-54.09684
2022-02-20 15:49:00+00:00,347.24800000000016,1.6,12.25,47.84626,-54.09684
2022-02-20 15:59:00+00:00,347.0662,1.6,12.25,47.84626,-54.09684
2022-02-20 16:09:00+00:00,339.2630000000001,1.6,12.25,47.84626,-54.09684
2022-02-20 16:19:01+00:00,323.7763,1.6,12.25,47.84626,-54.09684
2022-02-20 16:29:01+00:00,318.4097,1.6,12.25,47.84626,-54.09684
2022-02-20 16:39:01+00:00,317.1246,1.6,12.25,47.84626,-54.09684
2022-02-20 16:49:01+00:00,314.858,1.6,12.25,47.84626,-54.09684
2022-02-20 16:59:01+00:00,299.5229,1.6,12.25,47.84626,-54.09684
2022-02-20 17:09:01+00:00,290.2647,1.6,12.25,47.84626,-54.09684
2022-02-20 17:19:01+00:00,293.3181,1.6,12.25,47.84626,-54.09684
2022-02-20 17:29:01+00:00,285.5497,1.6,12.25,47.84626,-54.09684
2022-02-20 17:39:01+00:00,261.928,1.56,12.25,47.84626,-54.09684
2022-02-20 17:49:01+00:00,251.7331,1.5,12.25,47.84626,-54.09684
2022-02-20 17:59:01+00:00,252.9514,1.5,12.25,47.84626,-54.09684
2022-02-20 18:09:01+00:00,237.5664,1.47,12.25,47.84626,-54.09684
2022-02-20 18:19:00+00:00,213.9381,1.4,12.25,47.84626,-54.09684
2022-02-20 18:29:00+00:00,206.4198,1.4,12.25,47.84626,-54.09684
2022-02-20 18:39:00+00:00,204.6915,1.4,12.25,47.84626,-54.09684
2022-02-20 18:49:00+00:00,196.7981,1.4,12.25,47.84626,-54.09684
2022-02-20 18:59:00+00:00,188.1631,1.4,12.25,47.84626,-54.09684
2022-02-20 19:09:00+00:00,189.2748,1.3,12.25,47.84626,-54.09684
2022-02-20 19:19:00+00:00,189.8698,1.2,12.25,47.84626,-54.09684
2022-02-20 19:29:00+00:00,181.6282,1.2,12.25,47.84626,-54.09684
2022-02-20 19:39:00+00:00,175.0298,1.29,12.25,47.84626,-54.09684
2022-02-20 19:49:00+00:00,174.3814,1.2,12.25,47.84626,-54.09684
2022-02-20 19:59:00+00:00,172.2098,1.2,12.25,47.84626,-54.09684
2022-02-20 20:09:00+00:00,167.3598,1.37,12.25,47.84626,-54.09684
2022-02-20 20:19:00+00:00,170.5582,1.49,12.25,47.84626,-54.09684
2022-02-20 20:29:00+00:00,176.6131,1.5,12.25,47.84626,-54.09684
2022-02-20 20:39:00+00:00,171.6115,1.5,12.25,47.84626,-54.09684
2022-02-20 20:49:00+00:00,178.0165,1.5,12.25,47.84626,-54.09684
2022-02-20 20:59:00+00:00,191.1065,1.5,12.25,47.84626,-54.09684
2022-02-20 21:09:00+00:00,185.5331,1.5,12.25,47.84626,-54.09684
2022-02-20 21:19:00+00:00,182.7748,1.5,12.25,47.84626,-54.09684
2022-02-20 21:29:00+00:00,200.9815,1.5,12.25,47.84626,-54.09684
2022-02-20 21:39:00+00:00,210.4832,1.5,12.25,47.84626,-54.09684
2022-02-20 21:49:00+00:00,204.6681,1.5,12.25,47.84626,-54.09684
2022-02-20 21:59:00+00:00,206.1931,1.5,12.25,47.84626,-54.09684
2022-02-20 22:09:00+00:00,222.1131,1.5,12.25,47.84626,-54.09684
2022-02-20 22:19:01+00:00,226.4131,1.55,12.25,47.84626,-54.09684
2022-02-20 22:29:01+00:00,221.9631,1.5,12.25,47.84626,-54.09684
2022-02-20 22:39:01+00:00,222.2231,1.53,12.25,47.84626,-54.09684
2022-02-20 22:49:01+00:00,232.1998,1.66,12.25,47.84626,-54.09684
2022-02-20 22:59:01+00:00,242.7447,1.7,12.25,47.84626,-54.09684
2022-02-20 23:09:01+00:00,247.8331,1.6,12.25,47.84626,-54.09684
2022-02-20 23:19:01+00:00,249.7247,1.67,12.25,47.84626,-54.09684
2022-02-20 23:29:01+00:00,255.8347,1.7,12.25,47.84626,-54.09684
2022-02-20 23:39:01+00:00,268.4014,1.74,12.25,47.84626,-54.09684
2022-02-20 23:49:01+00:00,272.0747,1.7,12.25,47.84626,-54.09684
2022-02-20 23:59:01+00:00,270.6014,1.7,12.25,47.84626,-54.09684
